Theta_e
346 346 344 340 337 340 342 342 340 339 338 340 341 341 341 341 341 341 342 342 342 340 340 340 340 341 342 342 341 342 343 344 345 346 345 345 345 344 343 343 344 345 347 346 346 344 345 346 345 345 345 343 342 342 342 342 343 344 344 345 344 343 343 343 343 343 343 344 343 341 339 339 338 339 340 342 343 344 342 343 343 344 341 339 340
347 346 345 342 340 341 342 343 341 340 338 338 340 340 341 340 340 342 342 342 341 340 339 339 340 341 341 342 340 340 342 344 345 345 345 344 345 344 343 341 342 341 343 346 347 345 344 345 345 345 344 344 343 343 343 343 343 343 343 344 344 344 343 343 344 344 343 343 343 342 340 338 338 337 339 341 343 344 343 343 344 344 341 339 340
347 344 344 340 340 342 342 343 341 339 337 338 339 339 340 340 340 341 341 340 340 339 338 339 340 341 341 341 339 339 342 344 344 344 344 344 344 343 341 340 340 341 341 342 343 344 345 345 345 345 345 345 345 344 344 344 344 343 343 343 343 343 342 343 343 343 344 344 343 343 342 341 340 339 339 340 341 342 342 342 342 341 340 341 342
347 343 343 340 340 341 342 343 340 338 337 338 338 339 340 341 341 340 340 340 340 339 339 340 341 341 342 341 340 340 342 345 344 344 345 344 343 341 340 339 338 339 341 341 340 341 344 345 344 345 346 345 346 345 344 344 343 343 343 343 342 342 342 342 343 343 343 343 343 343 341 340 340 340 339 340 340 341 341 341 342 341 341 341 341
349 345 342 340 340 341 341 342 340 339 337 338 338 339 339 340 341 340 340 341 341 341 340 341 342 343 342 341 341 342 343 344 344 344 345 344 342 340 339 338 338 337 338 342 342 340 342 345 345 345 345 345 345 345 343 343 343 343 343 343 341 341 341 341 343 343 344 344 345 345 340 336 336 336 337 338 339 339 338 338 337 337 338 339 340
351 346 344 342 340 340 341 342 341 339 338 339 339 339 339 340 341 340 341 342 342 342 342 342 342 343 343 342 343 344 344 344 344 344 344 343 341 340 337 336 337 338 337 339 341 340 340 343 345 344 345 345 345 344 344 343 342 343 342 342 340 340 341 341 343 344 346 346 346 346 342 336 331 332 333 335 334 332 332 329 329 330 331 333 335
349 346 348 345 340 341 341 341 341 341 340 339 339 340 341 341 341 341 341 341 341 342 344 343 342 343 343 343 344 345 344 344 344 343 343 342 341 339 337 336 336 338 339 338 340 342 342 343 344 343 344 345 345 344 343 343 342 342 341 341 340 340 340 342 343 344 345 346 346 346 346 339 330 330 331 332 330 328 327 326 326 329 332 333 333
348 345 346 345 341 341 340 340 341 341 341 340 340 340 341 342 341 341 341 341 342 343 345 344 343 343 343 343 345 344 343 343 343 342 341 341 340 339 337 336 336 336 337 338 339 341 343 344 344 344 344 344 344 343 343 343 341 340 339 339 339 338 338 340 341 343 345 345 346 346 346 341 331 330 332 332 331 330 331 330 330 331 335 338 339
347 345 345 345 342 339 341 340 341 341 340 341 341 341 341 341 342 341 341 342 343 343 344 345 343 343 344 344 344 344 343 343 342 342 341 341 339 338 337 336 336 335 335 337 339 340 342 342 342 344 343 343 343 342 341 340 338 337 337 337 338 337 337 337 339 343 345 344 345 345 346 344 336 329 330 334 336 338 340 341 340 337 338 340 342
348 349 347 345 340 338 341 341 341 341 341 341 341 342 343 343 343 342 342 342 343 342 342 345 344 343 344 345 344 343 342 341 341 341 340 339 338 338 336 335 335 337 336 336 338 339 342 340 340 343 343 341 340 337 334 331 330 328 328 331 332 334 336 338 341 344 345 343 342 342 344 343 336 328 330 334 340 344 344 344 343 341 340 340 340
349 350 348 345 339 338 341 341 342 342 342 342 342 343 344 344 344 344 343 342 342 343 342 344 344 343 344 343 343 343 342 341 340 340 339 338 336 336 335 335 335 338 338 337 338 339 341 341 340 341 341 338 336 332 327 324 324 323 323 325 327 331 335 340 343 343 344 344 342 341 341 338 330 329 331 334 338 341 341 342 342 341 341 341 341
350 349 347 344 340 339 342 343 342 343 343 344 343 344 344 344 345 345 343 341 342 343 343 344 345 344 344 343 343 343 342 341 340 339 338 338 336 335 334 334 335 338 340 338 338 339 341 341 340 340 339 337 335 332 329 325 324 324 324 325 328 330 334 341 344 343 344 345 345 345 344 337 327 328 330 331 333 334 336 338 339 340 340 339 339
349 348 345 343 341 342 343 343 344 343 344 345 344 344 344 344 345 345 343 341 341 343 343 344 345 344 343 343 343 343 341 340 339 338 337 336 337 337 335 333 334 338 340 339 338 339 341 341 340 340 339 338 336 335 332 328 325 325 326 327 329 330 333 339 343 344 344 345 346 346 345 337 326 327 328 327 328 328 330 331 332 333 333 333 334
348 347 345 344 343 343 344 344 345 344 345 345 344 344 344 344 344 344 343 343 342 342 344 344 344 343 342 342 341 340 340 339 337 337 336 335 336 337 338 336 336 337 339 340 340 340 341 341 341 340 340 339 337 336 335 331 327 325 326 326 329 333 336 339 342 343 344 345 346 345 342 332 327 327 327 326 327 327 327 327 328 329 329 329 330
349 348 346 345 343 344 345 344 344 343 344 344 344 344 344 344 344 345 344 344 344 343 344 344 343 343 341 341 341 340 339 338 336 336 336 336 336 337 338 338 338 338 338 338 340 340 341 340 340 339 338 337 337 336 335 334 331 327 326 327 331 337 340 342 342 342 344 344 345 346 338 327 327 327 326 327 326 327 327 327 328 328 328 328 329
349 348 346 345 344 344 344 344 344 343 343 343 344 343 344 344 344 345 344 345 345 345 344 343 342 342 341 340 341 340 339 338 336 336 336 337 338 338 338 338 339 339 338 338 339 341 340 340 340 338 337 337 337 336 335 334 333 330 327 327 330 336 340 341 344 344 343 344 343 347 340 326 327 326 326 326 325 326 326 327 327 326 327 326 326
350 348 345 345 344 344 343 344 344 343 342 343 345 344 344 344 344 345 345 345 346 345 344 342 341 341 340 339 340 340 339 339 339 339 338 339 340 340 338 338 339 339 338 339 340 341 340 339 339 338 338 339 338 337 336 335 333 331 328 327 328 335 341 342 346 344 340 343 344 346 340 327 326 325 325 325 324 325 324 325 324 324 324 324 324
350 349 346 345 345 345 345 344 344 344 343 344 345 344 344 343 343 344 344 344 345 344 343 343 342 341 340 339 340 340 340 340 340 339 339 339 340 340 338 338 338 337 338 339 339 339 340 338 338 338 339 339 339 339 338 336 334 330 329 331 336 340 343 344 345 342 339 343 345 344 338 327 324 324 323 323 323 323 322 322 322 323 324 326 329
349 349 348 346 347 348 347 345 346 345 344 345 344 343 344 344 343 344 344 344 344 343 342 343 342 341 340 340 340 340 341 341 341 340 339 339 340 339 338 337 336 337 337 337 337 338 338 338 338 339 339 340 340 340 338 336 333 333 335 339 343 344 344 344 343 344 344 345 346 340 330 324 323 322 322 323 323 323 324 325 328 330 330 333 338
350 349 348 347 347 348 348 348 348 347 345 344 344 344 344 344 344 344 344 344 343 343 342 342 343 341 340 340 340 340 340 340 340 339 337 339 340 339 338 336 335 335 335 335 336 337 337 337 338 339 339 339 338 337 336 334 333 336 341 342 344 343 343 344 343 344 343 344 344 331 322 322 322 322 324 325 326 328 330 332 334 336 337 339 342
350 350 350 349 348 348 348 349 349 347 345 343 343 345 344 344 344 344 344 344 344 343 343 342 342 341 340 340 341 342 341 338 337 336 337 338 339 339 336 334 333 333 334 336 338 338 338 338 339 339 338 336 335 335 334 335 336 340 343 343 343 343 344 345 344 343 344 345 337 323 321 324 324 327 329 330 331 332 334 335 336 338 339 339 340
351 350 351 350 349 349 348 348 349 346 344 343 343 344 344 344 344 344 344 344 343 343 343 342 340 340 340 340 342 343 341 337 335 334 334 335 335 335 333 331 332 333 335 338 338 338 338 339 338 338 338 338 338 340 340 341 343 344 343 343 342 343 344 345 344 343 347 345 331 322 327 328 330 332 332 333 333 333 332 333 335 335 336 336 337
351 350 351 351 350 349 347 347 347 347 346 343 343 344 344 344 344 344 345 343 342 343 342 339 340 341 341 343 343 342 341 338 335 332 330 331 332 332 331 331 332 335 337 338 338 338 338 338 337 339 341 342 344 345 345 345 346 345 343 343 343 343 343 344 345 345 347 341 328 329 332 331 333 333 334 333 331 330 329 330 333 333 334 335 335
350 350 351 351 350 350 348 347 346 347 349 346 344 344 344 345 345 344 344 343 342 341 340 339 341 341 343 345 345 342 339 336 334 331 330 330 330 330 330 331 334 336 338 338 337 337 337 337 338 341 343 344 345 345 346 347 347 346 345 343 344 345 344 345 345 346 346 338 331 334 334 334 335 334 333 330 328 328 328 330 332 333 334 334 335
349 350 351 351 351 351 348 346 346 347 349 349 347 345 345 345 345 345 344 344 343 341 339 340 341 342 344 345 344 342 338 337 338 338 338 333 331 332 332 334 337 338 339 340 339 339 340 342 343 343 344 345 346 346 346 346 346 345 345 344 345 346 345 345 346 347 345 336 334 336 335 335 334 332 330 327 328 328 329 330 331 332 332 333 334
348 350 352 352 352 352 350 347 347 349 349 349 348 346 347 348 347 348 346 346 346 344 343 342 342 343 345 345 343 343 342 342 343 343 344 340 338 341 341 342 345 344 344 344 345 346 346 346 348 347 346 344 344 346 346 346 345 343 344 345 345 346 346 346 346 349 346 337 336 337 334 334 330 329 328 328 329 329 329 330 330 331 331 332 333
349 352 352 352 353 352 352 349 348 349 349 349 350 348 348 350 350 350 349 349 349 348 348 345 345 345 344 344 343 343 343 344 344 345 348 346 345 346 346 347 348 348 347 347 348 349 349 349 349 348 347 344 343 344 344 346 345 342 344 346 346 346 347 347 348 349 345 336 335 335 332 330 329 328 329 329 329 329 330 330 330 330 331 331 331
350 352 352 353 353 352 352 351 350 350 349 350 351 350 349 348 349 351 350 349 349 349 349 345 345 346 344 343 342 342 342 343 345 347 349 349 348 348 347 347 348 349 348 348 349 349 349 349 349 349 348 345 344 345 344 344 345 343 343 344 345 347 347 347 348 349 347 339 333 331 330 329 330 330 330 330 330 331 331 331 332 331 331 331 331
350 351 352 353 352 352 352 351 351 351 351 351 351 351 350 349 349 350 350 350 349 349 347 345 346 346 345 344 342 342 343 344 346 348 349 349 349 348 347 348 348 349 349 348 349 349 349 350 350 349 349 347 344 346 346 344 344 344 343 343 345 346 346 347 347 347 347 345 335 329 331 332 332 333 332 332 332 333 333 333 333 332 332 332 331
349 351 352 353 352 352 352 352 352 352 352 351 351 351 351 350 350 349 349 350 348 347 346 346 346 347 346 345 344 343 343 346 348 350 351 350 349 348 348 348 349 349 348 349 350 350 349 350 351 350 350 348 345 346 346 343 343 343 343 343 343 343 344 346 345 343 344 346 340 333 334 335 335 335 335 335 336 337 337 338 338 337 336 334 334
349 351 352 352 352 352 352 352 352 352 352 352 351 351 350 349 348 348 349 348 346 346 345 344 345 346 343 343 347 347 346 348 351 350 350 350 349 349 349 349 349 349 348 349 350 351 350 350 351 351 351 348 346 347 344 343 343 342 342 342 341 342 343 343 342 341 342 344 343 341 339 337 337 337 338 339 339 340 341 342 342 342 341 340 338
349 351 352 352 352 352 352 352 351 351 351 351 351 350 350 348 347 347 346 346 346 345 344 345 345 343 339 340 347 351 350 350 352 352 350 350 350 349 350 349 350 350 350 350 351 352 351 350 350 351 351 347 345 346 344 344 343 342 343 342 341 342 344 343 340 338 338 340 342 343 341 341 341 339 340 341 342 343 343 343 344 344 345 344 343
350 350 351 352 353 352 351 351 350 349 350 350 349 349 348 346 346 346 345 345 345 345 345 346 343 338 337 340 344 348 351 350 350 352 351 350 351 350 350 350 350 350 350 352 352 352 351 350 350 350 350 347 345 346 343 342 343 343 342 341 340 340 342 342 338 338 339 339 340 341 341 342 342 341 342 343 343 343 343 344 344 345 345 345 345
350 350 351 352 352 351 350 350 348 348 349 348 348 347 346 346 345 344 345 345 345 345 345 345 342 340 340 341 342 345 348 349 349 351 351 349 351 351 351 351 351 351 351 352 352 351 352 351 350 349 348 346 346 347 343 342 342 342 343 342 341 342 342 341 339 339 340 339 339 340 341 342 340 340 342 341 342 343 342 343 343 344 344 344 344
349 350 351 351 351 350 349 348 348 348 347 347 347 346 345 345 344 345 346 345 344 344 344 344 344 345 345 343 343 343 344 345 347 350 351 350 350 351 352 351 351 352 350 352 352 351 352 352 351 348 346 346 345 345 344 343 341 340 343 341 341 342 340 340 339 338 338 339 339 340 340 339 339 341 341 339 340 342 342 343 344 345 345 345 345
349 350 351 350 350 349 348 348 348 348 346 347 347 346 345 345 345 346 345 344 343 343 344 345 347 349 349 346 342 342 343 343 345 349 351 351 350 350 352 349 351 353 351 352 353 351 352 352 351 350 349 347 345 344 343 343 340 340 341 340 340 342 339 340 342 339 337 339 340 340 339 339 339 341 341 341 342 341 343 344 345 346 346 346 346
349 350 350 350 350 349 347 348 348 348 346 347 347 347 347 346 346 346 345 345 344 344 346 348 349 348 350 349 343 342 343 342 344 349 351 351 350 350 350 349 352 353 352 353 353 352 352 351 350 351 352 349 345 343 343 343 341 341 340 338 340 340 340 341 341 340 338 338 339 339 339 341 341 340 340 342 343 342 342 343 344 345 346 346 346
349 350 350 349 349 348 347 347 347 347 347 346 347 348 348 347 347 347 348 348 346 348 348 349 349 346 348 348 344 343 343 342 344 347 351 352 351 352 352 352 353 352 354 354 352 353 354 353 350 350 350 350 347 345 344 344 342 342 339 338 340 340 339 338 338 339 339 338 337 337 339 341 342 341 339 340 342 342 343 343 343 344 345 346 346
349 349 349 349 348 348 348 348 347 348 348 346 347 349 348 348 348 348 351 350 348 349 349 349 350 348 348 346 346 349 344 342 344 346 352 353 352 354 352 351 351 352 355 354 352 353 353 353 351 350 352 349 348 346 345 345 343 343 341 339 340 341 341 339 339 340 339 339 338 337 340 340 340 341 341 342 340 341 344 345 345 344 345 346 346
349 349 349 349 349 349 349 349 348 348 347 346 348 348 347 349 349 348 351 351 350 350 349 351 350 348 350 347 348 351 344 342 343 344 351 354 354 354 350 352 353 352 355 356 355 352 350 352 349 349 353 350 348 346 344 345 344 342 342 341 340 341 341 341 342 342 340 341 339 338 341 340 341 342 342 342 341 341 343 345 345 345 345 346 345
349 349 349 349 349 350 350 350 349 348 346 346 348 348 348 351 349 347 350 351 351 351 350 351 349 350 351 348 350 350 343 343 344 344 348 350 352 352 346 349 354 352 352 353 351 346 346 353 351 349 352 350 348 346 343 344 344 342 343 343 342 341 340 340 342 342 341 342 340 339 341 340 342 342 342 342 342 343 342 343 344 344 345 346 344
350 349 349 350 349 350 350 350 350 348 347 346 348 349 350 351 349 348 349 350 351 351 351 350 350 351 349 349 354 350 343 343 343 343 347 348 350 351 346 347 351 348 344 347 345 341 346 353 353 351 350 348 347 345 345 346 346 344 344 344 343 342 340 340 342 342 341 341 341 342 340 340 342 342 342 341 342 344 344 344 345 344 345 346 344
350 349 349 350 349 350 350 350 350 348 348 347 349 351 351 351 350 348 348 349 350 349 350 350 350 351 349 352 353 347 344 345 344 346 349 351 351 351 351 350 349 346 344 348 348 344 348 354 353 349 348 347 346 345 347 347 345 344 345 346 345 343 342 342 344 342 340 341 341 343 341 339 342 343 341 340 342 345 344 345 346 345 347 347 346
349 348 349 349 349 350 350 350 350 348 349 348 349 351 352 351 351 351 350 349 350 350 352 351 351 352 352 354 350 343 348 351 350 353 353 350 349 352 357 354 348 346 346 346 347 349 351 353 350 347 348 348 345 345 347 347 346 346 346 347 345 344 344 345 344 343 342 343 342 342 343 340 342 345 344 341 343 345 344 345 345 346 348 348 348
349 348 349 348 349 350 350 350 349 349 349 347 348 352 351 350 351 352 352 350 351 352 352 351 352 353 352 354 351 345 350 355 353 355 353 346 345 349 352 353 350 348 350 349 349 352 352 351 349 346 347 348 347 347 347 347 346 345 347 348 347 347 347 345 345 343 343 343 343 343 343 342 342 345 345 345 345 345 345 346 346 347 348 349 350
349 348 348 347 348 350 349 348 349 349 350 346 346 351 348 347 350 350 351 351 350 350 349 349 350 351 350 352 353 350 352 354 353 354 354 347 345 346 346 353 354 349 351 354 352 352 351 352 351 350 351 348 346 348 349 349 347 346 348 349 348 347 347 348 348 348 345 344 346 344 342 342 344 344 346 347 345 346 347 348 348 348 349 351 352
348 348 349 347 347 350 349 348 348 349 351 345 342 347 345 346 350 349 350 349 349 349 348 348 348 349 350 351 352 353 352 355 354 351 350 345 344 345 345 351 356 352 350 352 353 351 352 354 354 354 353 347 349 352 350 350 349 349 350 348 348 349 348 349 350 349 348 348 348 345 342 343 345 345 346 346 345 346 348 349 350 348 348 353 354
347 347 349 348 348 350 349 348 348 349 351 346 339 343 344 345 349 349 349 348 348 350 350 351 351 351 352 352 353 352 350 354 357 351 345 345 344 344 344 347 353 354 352 353 354 353 354 355 352 351 347 347 354 356 352 351 350 350 351 349 350 350 349 349 349 349 348 349 349 346 344 345 345 345 346 346 345 347 349 349 350 349 349 352 354
346 346 348 349 349 351 350 350 348 348 351 347 339 340 343 345 348 350 350 349 349 350 351 352 353 353 355 354 354 355 351 350 354 351 346 346 345 343 344 345 349 353 352 353 354 354 354 352 348 351 353 354 356 354 352 354 352 351 353 353 352 349 349 349 348 349 348 348 350 347 345 345 345 346 346 348 348 347 349 349 350 350 350 350 353
345 345 347 348 350 353 352 351 349 349 351 346 340 340 342 344 347 350 352 351 351 352 352 353 353 353 354 353 351 353 354 351 351 350 347 346 346 346 349 350 351 354 353 353 354 352 351 349 349 354 353 352 354 354 354 355 353 352 351 352 353 349 350 351 348 349 349 347 349 348 345 344 345 346 346 348 350 349 350 350 350 350 351 352 354
346 345 346 347 350 352 353 352 349 349 350 345 342 343 342 345 348 350 352 352 353 354 353 353 351 350 352 355 353 352 354 355 353 351 349 350 349 349 354 356 354 355 353 352 354 353 352 352 354 354 349 347 351 352 352 353 354 354 352 352 353 350 350 351 348 350 350 348 349 347 345 345 346 347 346 348 351 350 350 350 350 350 351 352 353
Wind_Speed
9 9 9 9 9 10 10 11 11 12 12 12 13 13 14 13 12 12 12 12 11 10 10 9 9 9 8 11 11 7 8 8 9 10 11 12 13 12 13 14 13 12 12 13 14 14 15 15 16 16 15 14 15 14 15 16 17 17 17 17 17 17 17 17 18 18 18 19 18 17 16 15 16 16 15 15 14 14 15 15 14 12 11 11 12
11 10 8 9 8 8 9 10 10 10 11 11 11 12 12 12 12 11 11 11 11 10 10 10 9 10 9 10 10 8 8 8 9 10 12 12 13 13 13 14 13 12 12 13 13 14 15 15 15 15 15 15 15 14 14 15 16 17 17 17 17 17 18 18 18 19 19 19 19 18 17 16 15 15 14 14 13 13 14 15 13 11 10 11 10
12 11 9 8 8 8 8 9 9 9 10 10 10 11 11 12 12 11 10 11 10 9 10 10 10 11 11 11 10 9 8 9 10 10 12 13 13 13 13 14 13 13 13 13 12 13 14 15 15 15 15 15 15 14 14 14 15 16 17 17 17 17 18 18 19 19 19 19 19 19 18 16 16 15 13 13 12 12 13 14 13 11 11 11 10
11 11 10 9 8 8 8 7 8 7 9 9 8 9 10 10 11 11 10 10 9 9 9 10 11 12 12 12 11 10 9 10 12 11 13 13 13 13 14 14 13 13 14 12 12 13 12 14 15 14 15 15 15 14 14 15 15 16 17 17 17 17 18 18 18 18 18 18 17 17 16 15 14 14 13 12 11 11 12 12 12 11 11 11 10
11 10 10 10 9 9 8 7 8 7 8 9 8 8 9 9 10 11 10 10 9 10 10 11 12 12 12 13 12 11 10 11 12 12 13 12 13 14 15 15 13 13 13 12 12 13 12 12 14 14 15 15 14 14 15 15 15 16 16 16 17 17 17 18 18 17 17 16 16 15 13 12 11 11 11 10 10 10 10 10 10 10 10 10 9
11 10 9 9 9 9 9 8 9 7 7 8 8 8 9 9 9 10 10 11 10 10 11 11 12 12 12 12 11 10 11 12 12 12 13 13 14 14 15 14 12 13 13 13 12 12 12 12 14 15 15 15 14 15 15 16 16 16 16 16 17 17 17 17 16 16 16 15 14 13 13 11 9 9 9 8 8 8 8 8 8 9 9 9 8
11 10 9 9 10 10 9 9 10 8 7 7 8 8 8 9 9 8 9 10 10 10 11 12 12 11 11 11 11 11 11 12 11 12 13 14 14 15 16 14 12 13 13 13 13 11 12 14 15 14 14 14 15 16 16 16 16 16 16 16 16 16 16 15 15 14 13 13 13 13 12 10 8 8 8 8 9 9 8 8 8 8 9 9 8
10 11 10 9 10 10 9 9 10 9 9 8 9 8 8 9 8 8 8 9 10 11 11 12 12 11 10 10 11 11 12 12 12 13 14 14 15 15 15 13 12 12 13 14 14 12 12 14 15 15 15 15 15 15 15 15 15 15 15 15 15 15 14 13 13 13 12 11 12 12 11 9 7 8 9 10 10 11 10 10 8 7 8 8 8
9 10 10 9 9 9 8 8 9 10 10 10 11 10 10 9 8 9 10 9 10 11 11 11 12 12 11 10 11 11 12 12 13 14 14 15 14 15 15 13 12 12 13 13 14 13 12 14 15 14 15 15 15 14 14 14 13 13 13 14 13 14 13 12 13 14 11 10 11 11 12 10 7 7 8 10 10 10 10 10 8 7 7 7 7
9 9 8 10 9 8 8 8 9 9 9 10 11 11 11 11 10 10 11 10 10 11 11 12 12 12 12 11 11 11 11 12 13 14 14 15 14 14 14 12 11 11 12 13 13 12 12 14 14 14 15 15 14 14 14 13 13 12 12 12 12 13 12 13 15 12 10 9 9 10 11 9 6 6 8 10 10 9 9 9 8 7 7 6 6
10 9 7 9 9 8 8 8 8 9 9 9 9 9 10 10 10 9 11 11 10 11 11 11 12 12 12 12 12 11 11 12 13 13 14 14 14 13 13 12 9 10 12 13 13 12 12 15 15 14 14 14 14 14 14 14 13 12 12 12 12 12 11 15 14 9 9 10 10 10 9 8 6 8 9 10 9 9 8 8 7 7 7 6 6
10 9 7 7 9 8 8 8 8 8 8 9 8 7 8 9 10 9 10 11 11 11 11 11 11 12 13 13 12 12 11 12 13 13 14 14 14 13 12 11 10 11 12 13 14 13 12 14 15 14 13 13 13 14 14 14 13 13 13 12 12 10 10 15 12 7 9 10 12 11 9 7 7 8 8 9 9 9 8 8 7 6 6 5 4
8 7 7 7 8 8 7 8 8 8 7 8 8 7 7 9 10 10 10 12 12 11 11 11 11 12 12 13 12 11 11 12 12 13 13 13 14 14 13 12 10 11 12 13 15 14 13 14 14 13 12 12 13 13 12 13 13 12 12 12 12 11 12 14 10 7 8 8 10 10 8 6 6 6 6 7 8 8 7 7 6 5 4 3 2
7 6 6 5 6 7 6 7 8 7 7 7 7 7 8 9 10 11 12 14 14 13 13 13 13 13 12 13 11 11 11 11 12 12 12 12 13 13 13 12 11 11 12 13 16 16 14 14 13 12 12 12 12 12 12 12 11 12 11 11 11 12 14 13 8 7 8 8 8 7 6 5 4 5 5 6 6 6 6 5 5 4 2 2 1
7 6 6 6 5 6 6 7 8 8 8 7 7 7 8 10 11 12 13 14 15 15 14 14 13 13 13 13 12 12 12 12 12 12 12 11 12 12 13 13 13 12 12 11 14 16 15 14 13 12 12 12 12 11 11 11 11 10 9 9 9 10 13 11 5 6 7 6 8 5 2 2 3 3 4 5 5 5 5 4 3 2 2 1 1
7 5 6 8 6 5 6 7 7 8 8 8 8 8 7 9 11 12 13 15 16 16 15 15 14 14 14 14 13 12 12 12 12 12 12 12 11 11 13 13 14 13 12 11 12 14 13 13 13 12 12 12 12 12 12 11 11 10 9 9 9 10 12 11 6 4 5 5 8 4 3 1 2 2 4 3 3 4 4 3 2 2 2 1 1
7 4 6 8 6 5 7 7 8 8 9 8 8 8 8 9 10 11 13 14 15 15 15 16 16 15 15 15 14 13 13 13 12 12 12 12 11 11 12 13 14 14 13 13 12 12 12 12 12 12 12 12 13 13 13 12 11 10 10 11 11 10 10 11 7 3 4 6 7 2 4 0 2 2 3 3 3 4 3 3 3 2 2 2 2
6 4 7 7 7 7 5 6 8 8 9 9 9 9 9 10 10 11 12 14 14 15 16 17 17 16 16 16 15 14 14 14 13 12 12 12 11 11 12 12 13 13 13 13 13 12 11 12 12 12 12 13 13 14 13 12 11 11 13 14 15 13 11 13 8 2 4 7 5 5 5 1 1 2 3 3 4 4 4 4 4 4 4 4 4
6 4 8 9 9 10 6 5 8 9 9 9 10 10 10 11 11 12 12 14 14 16 17 17 18 18 18 17 16 15 14 14 12 11 11 11 11 11 11 11 12 12 13 14 13 12 12 12 12 12 13 13 13 13 12 11 11 12 13 14 15 13 13 13 8 3 5 6 3 5 2 0 2 2 3 4 4 5 6 5 5 5 5 5 5
7 4 6 8 9 10 8 6 6 9 9 10 12 11 11 12 12 13 14 15 16 17 18 18 19 19 19 18 17 16 15 13 12 11 11 11 11 10 10 10 11 12 13 13 13 13 12 12 12 11 12 13 13 13 12 11 11 12 13 13 13 14 14 11 6 3 3 4 4 3 0 2 3 3 4 5 5 5 6 6 6 6 5 5 5
7 6 5 6 7 7 8 8 7 8 9 10 13 13 13 13 13 14 15 16 16 18 19 19 19 19 18 18 17 16 15 13 12 11 11 12 12 11 11 11 12 12 12 12 12 12 12 12 11 10 12 13 13 14 14 14 13 13 14 14 15 13 9 6 4 4 3 2 2 1 3 3 4 4 5 5 5 5 6 8 8 7 6 5 5
7 7 7 7 7 5 7 9 9 9 8 10 13 14 14 14 14 15 16 17 18 19 20 20 19 19 18 17 16 16 15 13 12 11 11 12 13 13 13 12 12 11 11 11 11 12 11 11 10 9 10 11 12 13 11 12 14 14 14 16 14 8 4 4 4 5 4 2 1 3 3 3 5 5 6 6 6 7 8 10 9 9 8 7 7
7 7 7 7 7 5 5 9 11 12 10 10 13 15 14 15 15 16 17 18 19 20 21 21 18 17 17 16 15 15 16 14 13 13 13 14 14 14 13 12 12 11 11 10 10 11 10 9 8 9 10 11 13 11 6 8 11 12 13 13 9 4 3 5 4 5 4 2 0 4 4 5 6 7 7 6 8 9 10 11 10 10 10 9 9
8 7 8 8 8 6 6 9 12 13 13 11 12 15 15 15 16 16 17 18 20 21 20 19 16 16 15 14 14 15 16 16 15 15 16 16 15 14 13 12 12 11 11 11 11 9 9 8 8 10 11 12 11 6 3 3 5 8 10 8 5 4 4 4 4 5 3 1 2 4 5 7 8 8 8 7 9 10 11 12 11 11 11 10 10
9 8 8 9 10 9 7 10 12 14 15 12 12 15 16 15 16 16 17 18 19 20 19 17 16 16 14 13 14 15 16 16 15 14 14 15 15 13 12 12 12 11 11 11 9 7 7 6 7 9 9 7 4 3 4 4 4 5 6 4 4 4 4 4 5 5 2 1 5 6 7 8 9 10 9 9 11 11 11 11 11 11 11 11 10
9 9 9 10 11 10 9 9 13 14 14 14 12 14 15 13 14 15 15 16 17 17 16 15 16 16 14 14 14 14 14 13 13 14 12 12 12 11 11 12 10 9 10 9 6 4 5 4 3 4 4 3 3 4 4 4 5 5 5 5 4 4 4 4 5 5 2 3 6 7 8 9 9 10 10 10 11 11 11 11 10 10 10 10 10
9 10 10 11 11 11 10 10 12 12 13 15 13 13 14 14 15 15 14 15 15 15 13 14 15 15 13 13 13 12 12 12 13 14 13 10 9 8 9 10 8 7 8 7 6 4 4 3 3 3 3 4 4 6 6 5 5 5 6 5 4 5 5 5 5 5 3 4 7 7 8 9 10 11 11 11 11 11 10 10 9 9 9 9 9
10 10 10 10 11 11 12 11 11 12 13 14 13 13 12 14 17 15 15 15 14 13 12 15 16 15 13 12 12 12 11 11 11 12 12 9 8 7 8 9 8 7 7 6 6 5 4 4 4 4 3 4 5 6 6 6 6 6 7 5 6 6 5 5 5 5 4 4 6 7 8 9 10 12 12 11 10 10 10 10 9 9 9 9 9
10 11 11 11 11 11 11 12 12 12 12 12 12 13 12 14 15 14 15 14 12 13 14 14 14 14 14 12 11 11 11 10 10 10 10 9 8 8 8 9 8 8 7 6 6 5 5 4 4 4 4 4 5 5 5 6 6 6 6 6 7 6 6 6 6 6 5 5 6 7 8 9 11 12 12 11 10 10 10 10 9 9 9 8 9
10 12 12 12 12 12 11 12 12 12 12 11 12 12 13 13 14 14 14 13 13 14 14 12 12 13 13 13 12 10 10 10 9 10 9 8 8 8 9 8 8 7 7 6 6 5 4 4 3 3 3 4 5 5 5 6 6 6 7 7 7 7 8 8 8 8 6 5 7 9 9 9 11 11 11 10 10 10 10 10 9 9 9 8 8
11 12 12 12 12 12 12 12 12 12 11 12 12 12 13 13 14 14 13 13 14 14 13 12 12 11 13 16 14 10 9 9 9 9 9 8 7 8 8 8 8 7 6 6 5 5 4 3 3 4 4 5 5 5 6 7 6 7 7 7 6 8 10 10 9 8 6 7 8 9 11 12 12 11 11 10 9 9 9 9 9 9 9 8 8
11 12 12 13 13 13 13 12 12 13 12 12 13 13 13 13 13 12 12 14 13 12 12 12 11 11 13 16 14 10 9 10 10 9 8 7 7 8 8 7 7 6 5 6 5 4 4 4 4 4 5 5 6 6 6 6 6 7 7 7 7 8 10 7 6 6 6 9 9 5 8 12 13 11 10 10 9 9 9 8 8 8 8 8 7
11 11 12 14 14 14 13 13 12 13 13 12 13 13 13 12 12 11 13 13 12 11 12 11 12 13 13 12 12 12 10 10 11 10 8 8 8 7 7 7 6 6 5 5 4 4 3 4 4 4 4 5 5 6 6 6 6 7 7 6 6 8 9 6 4 7 6 7 8 4 4 7 9 8 9 10 9 8 9 8 8 8 8 7 7
11 12 13 14 14 14 14 13 13 13 13 13 13 13 12 11 11 12 13 12 11 11 11 12 12 12 12 11 11 12 11 10 11 11 9 8 8 7 7 6 6 5 5 6 5 4 4 4 3 3 5 5 5 5 6 6 6 7 7 7 6 6 7 5 4 7 6 4 5 4 3 3 5 5 6 7 7 7 7 7 7 7 7 7 8
12 13 14 14 14 14 14 14 14 13 13 13 13 12 12 12 12 12 12 11 11 11 12 12 11 10 10 10 10 10 10 11 11 12 10 7 7 7 6 6 6 5 4 6 6 3 4 4 3 3 5 6 5 5 6 5 6 6 6 7 8 6 6 6 5 6 6 5 4 3 2 2 3 4 7 6 7 6 6 6 6 6 7 8 9
13 14 14 14 14 14 14 15 15 14 14 14 13 12 12 12 12 12 12 12 11 11 11 11 10 10 8 8 9 9 8 9 11 13 10 6 7 6 6 7 6 4 4 5 5 3 4 4 3 4 3 4 5 5 6 6 6 6 6 7 7 7 6 5 5 5 5 5 4 3 1 4 4 3 7 7 8 6 5 5 4 6 7 9 10
13 15 15 14 14 15 15 15 15 14 14 14 14 13 12 12 12 12 11 11 10 10 10 9 9 9 9 8 8 8 7 8 10 12 11 7 6 5 5 6 4 4 4 4 4 4 4 3 4 4 3 4 5 4 5 5 5 7 7 6 6 6 5 5 6 6 4 4 3 2 2 4 4 4 7 5 6 7 6 6 5 5 7 10 12
14 15 15 14 14 15 15 15 15 15 14 15 15 12 12 12 11 11 10 9 9 9 8 8 7 6 8 8 7 7 6 8 8 11 12 8 6 6 5 6 4 4 3 3 3 4 4 4 3 4 4 5 4 3 4 4 4 6 6 5 5 5 5 4 6 5 2 3 2 3 5 3 3 2 5 3 5 8 9 10 9 7 8 10 11
14 15 15 15 15 15 15 16 15 14 14 15 14 12 12 12 10 10 10 9 8 8 7 8 7 6 6 7 7 6 5 7 8 10 11 7 5 4 5 6 4 5 4 3 3 3 4 5 3 4 3 3 3 2 3 3 3 5 5 5 4 5 5 2 3 2 1 4 3 4 6 4 3 3 4 2 3 7 9 10 11 8 8 10 9
15 16 16 15 15 15 16 16 15 14 15 15 14 12 12 10 10 10 9 9 8 8 7 7 6 6 6 7 8 6 6 8 7 9 10 8 6 4 7 7 4 5 4 3 3 3 5 4 3 5 3 1 1 1 2 1 2 4 4 5 4 4 4 3 2 1 2 5 4 4 7 5 3 2 3 2 2 4 5 10 11 8 7 10 12
16 16 16 16 15 15 16 16 15 15 15 15 13 12 11 10 10 10 9 8 8 8 7 7 6 6 6 7 7 6 7 8 7 8 8 8 7 5 8 8 5 5 5 4 3 4 6 4 3 3 4 2 2 1 1 2 3 3 3 4 4 4 4 3 2 1 3 6 6 5 5 6 5 3 3 4 5 5 6 9 11 10 9 11 14
16 17 17 16 16 15 16 16 15 15 14 14 13 11 10 9 9 9 8 8 8 8 7 7 6 6 8 8 6 5 7 8 7 8 8 7 6 5 6 7 5 6 6 4 3 4 5 4 3 3 3 1 3 3 1 1 2 3 3 3 4 4 2 2 2 3 5 5 5 6 5 6 6 3 2 4 8 9 7 7 10 11 11 12 12
16 17 17 17 17 15 16 16 15 15 14 14 13 11 10 9 8 8 7 7 7 7 7 7 6 5 7 7 6 8 7 6 6 7 6 5 6 6 4 4 5 6 6 4 3 2 3 4 3 3 3 1 4 6 2 2 1 3 4 2 3 3 2 3 4 4 5 4 3 5 5 4 5 4 3 6 9 9 6 4 10 12 12 12 11
17 18 17 17 17 16 17 17 16 16 15 15 13 11 10 10 9 7 7 7 7 7 7 7 7 6 6 6 6 7 8 5 5 5 4 6 8 7 4 3 4 6 5 4 3 2 1 2 1 2 4 3 2 5 3 2 2 2 3 1 2 4 3 2 3 5 5 5 3 4 3 3 5 3 2 5 6 8 5 4 9 10 12 11 11
18 18 18 18 17 17 18 17 16 16 15 16 15 12 13 13 12 9 8 9 8 7 8 8 8 7 7 6 5 6 8 6 6 6 4 5 7 6 6 4 3 5 4 2 2 1 1 0 1 1 3 2 1 2 3 1 1 1 2 2 2 3 3 3 3 4 7 6 4 5 5 3 3 5 7 5 5 6 4 5 7 7 10 11 12
18 18 18 18 18 17 18 18 17 16 15 16 16 14 14 14 12 11 9 9 8 8 8 8 8 7 6 7 6 5 7 6 6 7 5 5 6 5 5 4 2 3 5 4 3 2 2 1 1 2 2 2 1 2 2 2 1 1 1 1 1 2 3 3 3 5 7 6 7 8 7 4 3 7 9 5 6 8 3 5 5 5 9 9 13
19 19 18 18 18 18 19 18 18 16 15 17 17 14 14 13 11 10 8 8 8 8 8 7 7 6 5 6 6 6 7 6 5 5 5 4 4 4 4 4 2 2 3 4 3 2 2 2 2 1 1 2 1 2 2 2 3 2 0 1 2 3 4 3 3 5 6 6 8 7 7 8 7 10 9 3 8 9 4 5 5 6 9 8 12
19 20 19 18 19 19 19 19 18 17 15 16 17 15 15 14 12 10 9 8 8 8 8 7 6 6 5 5 6 6 6 8 6 5 4 4 3 3 3 4 4 3 3 3 2 2 3 3 3 2 2 2 1 2 3 3 4 2 1 3 4 4 4 4 4 4 6 7 7 7 7 10 9 9 9 6 9 8 6 7 6 8 9 7 10
20 20 19 19 19 19 20 19 18 18 16 16 18 16 14 13 13 11 9 8 7 7 8 7 7 7 7 7 7 6 5 7 8 6 4 5 4 3 3 4 4 3 3 4 3 3 3 3 2 1 1 1 2 3 2 2 5 4 4 4 5 5 5 5 6 6 7 7 7 8 8 10 9 7 7 7 8 9 8 8 8 8 8 6 6
20 20 20 20 20 19 20 20 18 18 17 17 17 17 15 13 13 12 10 9 8 7 8 7 8 8 7 8 8 7 5 5 6 6 5 5 5 4 3 3 3 2 4 6 4 3 3 2 2 3 3 3 2 3 3 3 5 5 5 5 5 6 6 6 7 7 7 8 8 9 9 10 10 7 8 8 9 10 8 8 9 8 8 7 5
20 21 20 20 20 20 20 21 19 18 17 17 17 16 16 14 13 13 11 10 9 8 9 8 8 9 8 7 7 7 6 5 5 6 5 5 6 5 4 3 4 4 4 4 3 3 2 1 3 5 5 4 3 3 4 4 5 6 6 6 6 6 6 6 7 6 7 9 9 10 10 11 10 9 9 7 7 9 6 7 9 6 8 8 6
Wind_Direction
137 130 129 132 132 117 114 117 114 112 109 108 108 108 109 109 110 114 116 117 114 112 108 108 108 103 100 101 103 109 113 113 109 106 103 100 99 97 98 99 98 94 92 97 99 102 103 102 102 101 101 100 99 99 100 100 100 100 99 99 99 98 97 97 97 95 95 93 92 90 88 85 85 86 88 88 89 91 93 91 85 82 86 91 94
139 134 131 132 130 117 114 113 114 120 118 116 115 111 113 114 114 115 115 115 112 111 109 110 112 108 107 105 109 119 119 118 110 106 104 101 100 99 97 94 97 99 94 89 91 101 106 104 102 103 104 102 102 100 100 101 100 101 100 100 98 97 97 96 94 93 94 93 91 90 89 85 82 82 83 84 85 86 90 92 93 93 93 91 91
139 135 130 129 124 115 108 109 116 126 124 120 122 120 121 124 120 119 117 114 111 111 110 112 114 115 117 113 115 126 130 126 115 108 105 104 103 102 97 92 91 91 88 85 87 93 97 100 101 102 104 104 103 101 101 99 99 100 100 101 99 97 97 95 93 93 93 92 91 89 88 86 85 83 81 81 83 84 85 89 94 97 95 93 90
136 135 132 128 123 115 110 113 114 123 130 126 126 128 128 128 125 122 117 116 114 112 115 119 120 116 116 116 121 134 138 128 117 110 105 106 107 102 96 93 89 86 84 84 89 90 88 96 102 103 103 103 101 100 101 99 98 97 98 100 98 96 95 94 92 91 91 91 90 86 84 83 84 84 82 81 82 85 85 86 91 93 92 90 89
133 135 136 130 129 122 120 123 114 116 128 134 135 136 132 128 130 128 123 118 116 118 124 126 121 116 115 118 127 140 137 120 113 110 109 109 106 103 97 92 89 91 91 87 88 93 93 94 99 100 100 101 100 100 98 97 96 95 96 97 98 99 96 95 94 91 88 88 88 86 85 80 81 86 88 87 86 85 86 87 89 89 88 86 85
136 136 136 134 134 127 129 130 123 121 125 137 142 141 134 131 135 134 129 122 122 126 128 126 121 118 119 122 132 138 126 114 111 110 113 113 108 105 99 97 95 92 94 94 87 90 98 96 93 96 99 101 100 97 96 96 96 95 95 96 99 99 97 96 94 91 88 89 91 87 82 76 75 88 96 97 95 92 90 88 87 86 87 86 82
138 133 135 139 139 134 135 136 132 132 134 141 143 142 135 133 134 136 136 129 131 132 131 128 121 119 125 130 132 128 118 114 112 111 115 117 113 108 103 102 98 94 94 95 90 88 96 99 98 100 102 101 99 97 96 95 95 96 95 96 98 98 98 94 89 88 88 87 86 85 84 77 74 87 96 99 99 95 88 82 82 84 85 83 78
140 134 138 140 139 140 139 141 141 141 147 148 145 149 147 140 139 143 143 138 137 137 132 127 123 124 133 135 129 125 118 117 115 113 115 117 114 107 105 103 99 97 96 94 95 94 95 99 101 101 101 99 98 98 97 95 96 97 97 97 96 97 93 90 89 85 80 81 85 89 91 82 75 86 95 98 98 95 90 82 79 79 82 82 78
136 128 139 143 140 145 148 146 145 144 148 152 152 156 158 152 154 157 149 145 144 140 134 130 131 132 136 135 129 125 119 119 118 117 116 114 111 107 105 105 103 102 100 99 99 100 100 99 97 97 100 99 98 98 97 96 97 97 98 98 97 95 89 87 85 77 71 78 91 94 92 88 79 83 94 101 100 97 96 92 88 85 86 89 86
124 116 133 148 149 153 155 147 142 142 142 150 153 152 156 153 153 160 152 148 146 141 139 138 136 134 135 133 127 122 119 121 121 119 117 114 111 108 107 108 108 107 107 105 100 101 101 99 97 98 98 98 97 96 96 96 97 99 101 102 103 99 95 86 76 74 77 76 82 88 95 99 88 88 102 109 108 103 100 99 102 103 98 96 91
127 129 138 147 152 156 154 147 144 145 141 144 150 148 148 145 146 158 155 147 144 139 141 142 137 135 133 130 126 122 123 124 122 120 116 113 113 113 112 113 113 112 110 105 103 102 99 100 102 102 99 97 96 94 95 96 94 96 99 104 107 105 104 89 77 85 95 90 85 78 87 99 96 102 112 117 119 118 116 114 115 115 109 103 96
138 150 148 141 148 154 152 150 150 147 143 142 146 148 140 138 142 151 151 147 145 140 142 144 136 134 133 129 128 125 125 123 122 120 115 114 116 118 117 119 122 117 109 105 106 104 100 100 101 104 103 99 97 95 94 95 95 94 96 101 104 106 106 91 83 88 90 98 98 87 88 97 103 111 121 124 127 129 129 129 128 126 120 116 116
147 158 150 149 149 152 156 151 149 144 142 139 143 148 142 143 144 147 148 145 144 142 143 144 139 136 131 125 123 124 126 124 121 120 120 121 120 121 123 127 129 119 110 107 105 105 104 101 103 108 107 103 99 97 95 96 98 97 97 100 102 102 99 89 86 92 87 90 92 94 100 103 113 117 125 123 121 124 129 134 135 132 128 129 140
146 152 137 147 151 145 146 144 143 140 138 141 153 154 153 154 149 150 149 145 143 145 147 145 141 135 128 124 123 127 130 128 124 124 129 128 124 125 127 131 130 120 112 109 107 107 110 108 111 112 108 104 99 98 97 97 98 100 103 105 103 96 88 78 74 89 87 80 77 85 97 105 121 121 123 116 115 120 124 128 127 128 132 130 136
150 161 132 134 149 144 138 138 140 142 144 149 162 156 158 158 147 148 147 144 144 145 147 141 135 130 128 126 126 128 129 130 129 133 137 134 132 132 131 129 127 121 115 111 106 107 112 114 116 114 109 104 101 99 96 95 95 97 102 105 104 99 96 90 84 89 84 82 88 88 88 118 125 126 124 115 121 124 122 120 119 128 132 132 128
152 170 134 131 145 151 139 138 144 143 148 153 156 152 155 149 141 146 142 140 141 140 141 136 130 129 130 127 124 126 127 129 131 137 140 136 136 136 133 127 126 124 117 112 107 106 112 116 118 115 110 106 103 99 96 95 91 91 95 100 101 101 103 101 95 88 93 95 92 86 281 193 151 145 125 120 126 128 127 124 126 128 115 121 112
141 147 125 135 147 150 140 140 145 141 146 150 150 148 145 139 140 145 136 133 135 134 136 132 129 130 129 124 123 127 127 127 127 131 136 135 134 133 132 130 130 126 116 114 112 107 111 119 120 115 109 105 101 97 96 94 91 89 89 91 91 89 90 94 91 85 116 105 93 143 261 199 167 169 131 135 134 130 124 119 113 103 96 102 104
141 144 124 135 131 126 133 140 141 138 144 146 146 145 139 136 139 139 130 129 132 132 131 129 129 129 125 123 127 130 127 125 124 125 129 130 127 124 127 130 130 124 118 118 116 113 118 122 119 114 108 102 96 92 91 92 93 91 89 85 79 78 83 93 97 81 96 94 104 203 241 295 169 157 141 137 127 120 108 102 99 97 106 112 109
137 134 118 122 121 125 133 135 135 134 140 143 140 141 137 135 134 131 127 129 131 131 130 130 129 127 123 124 128 127 121 121 122 124 125 124 122 121 122 124 123 122 122 119 116 119 123 123 119 113 107 99 93 88 88 89 93 92 88 83 76 75 80 83 92 89 85 101 159 235 247 161 148 132 132 123 117 114 109 108 106 107 112 107 95
125 113 96 107 121 132 136 129 127 126 134 140 138 139 135 133 132 131 130 130 131 130 131 131 127 124 124 124 123 118 112 111 115 124 127 126 126 124 122 120 121 121 118 113 115 121 125 125 119 112 104 96 90 84 81 79 83 84 81 78 70 67 71 73 93 109 92 134 203 249 122 122 122 120 121 112 110 112 112 112 102 94 92 84 75
121 119 93 92 101 119 131 127 126 123 131 139 137 137 133 132 132 131 131 130 130 130 129 126 123 123 124 122 118 113 108 104 111 122 125 131 136 132 128 123 119 114 111 112 116 121 123 121 116 110 101 95 90 82 75 69 67 68 71 71 63 58 64 77 109 108 101 161 228 102 108 114 108 109 103 98 99 101 103 96 85 77 76 74 73
123 124 115 108 108 132 138 125 127 123 121 129 132 132 131 131 130 129 131 129 129 129 126 123 124 123 122 119 115 113 109 104 105 113 121 129 133 129 124 118 113 111 109 111 115 117 117 117 113 104 93 88 83 73 58 49 50 56 67 69 65 66 84 101 112 108 116 203 287 93 110 108 102 94 87 94 99 98 93 84 76 72 72 71 69
129 126 122 120 122 137 126 120 126 121 116 119 123 125 128 128 126 128 128 127 127 127 124 123 123 120 119 116 114 113 111 111 111 115 120 122 123 120 116 113 111 109 109 111 114 114 112 113 107 91 79 69 65 63 34 17 28 38 55 66 76 94 103 99 107 108 125 227 108 104 109 100 98 91 90 100 103 96 85 78 74 70 68 66 64
135 131 127 126 125 124 115 122 123 122 125 121 118 121 126 126 125 127 126 125 124 123 123 123 122 120 118 116 116 114 114 120 117 114 114 113 114 114 114 116 114 113 114 113 111 113 113 106 91 77 67 60 58 69 84 45 25 31 50 70 93 100 97 104 107 108 136 219 102 106 106 105 103 100 103 106 98 87 79 76 72 71 69 66 63
139 132 131 131 128 128 129 129 121 122 127 123 119 120 123 123 122 123 122 123 122 123 124 122 122 117 115 115 117 118 120 120 115 115 113 110 112 115 120 120 117 118 112 108 109 105 98 87 70 59 55 61 68 100 104 89 85 72 75 88 93 93 97 105 106 108 137 122 106 110 108 109 108 109 110 101 89 81 77 74 71 70 69 66 63
134 127 132 132 129 131 132 128 121 120 122 122 119 113 116 121 122 123 123 124 126 126 124 124 119 113 117 123 123 124 123 121 123 125 117 112 112 112 117 116 119 118 104 110 127 100 79 80 67 54 67 97 102 102 101 97 97 95 100 100 92 95 94 99 105 110 125 112 107 108 108 110 110 110 103 90 82 77 74 71 71 69 68 66 63
130 129 135 132 131 134 132 128 120 118 119 121 121 117 121 131 130 128 130 131 130 128 129 130 120 117 125 126 124 126 124 125 125 118 110 107 103 101 105 110 122 121 111 123 135 116 99 111 101 89 107 108 100 97 95 95 100 96 92 93 94 92 92 95 101 106 107 99 104 106 106 109 108 100 91 81 75 72 69 68 68 66 68 66 64
132 133 134 130 132 134 132 130 122 119 119 120 126 127 128 131 128 129 133 132 129 130 136 133 126 127 129 125 125 124 123 122 117 108 107 109 109 114 110 111 121 122 124 124 116 114 112 108 98 95 94 99 106 104 100 96 100 100 91 93 97 93 91 89 91 96 80 62 81 95 101 103 100 90 81 75 69 67 64 63 64 65 67 65 64
135 135 134 133 134 134 131 129 126 125 124 124 128 130 129 126 125 130 131 126 130 134 134 129 126 128 124 122 124 122 122 120 114 108 110 115 116 120 113 115 124 120 123 119 110 109 103 97 96 97 89 99 108 105 113 108 103 104 100 98 95 91 88 82 81 85 79 57 56 78 94 92 87 81 76 71 66 64 62 60 61 61 63 63 61
138 137 135 136 134 132 132 131 131 129 128 129 130 129 129 127 128 130 125 126 134 131 127 127 127 127 128 130 125 121 124 119 115 112 114 118 117 117 114 119 123 119 122 117 110 106 101 99 96 100 98 106 112 107 108 107 103 102 103 99 90 88 84 76 70 71 76 58 38 51 68 74 75 74 70 66 62 58 57 55 54 54 54 55 53
140 139 137 138 136 134 137 137 134 132 133 133 131 129 128 128 128 126 125 129 129 125 125 129 129 133 139 135 121 112 121 120 114 113 119 120 119 120 119 124 122 118 119 114 111 106 102 104 106 114 113 111 113 114 112 108 106 102 104 99 92 82 69 65 67 76 100 85 53 30 36 49 53 57 58 52 48 46 44 42 40 41 41 40 41
143 143 140 140 139 139 140 139 136 137 136 133 132 130 129 129 125 126 131 128 124 126 127 127 134 137 137 134 125 124 132 130 122 116 120 121 123 123 121 126 124 122 121 114 111 103 100 105 111 116 116 116 113 118 118 111 109 108 109 103 98 80 68 75 81 94 114 92 81 34 26 40 36 38 43 33 27 25 23 22 20 21 23 23 24
145 145 144 143 142 141 140 138 139 137 133 133 133 130 130 128 127 133 132 125 124 130 129 131 140 138 136 140 140 140 135 128 127 122 121 121 120 125 126 129 127 128 125 112 99 92 102 110 111 110 115 124 119 121 120 113 111 108 110 109 97 85 93 113 102 99 103 88 90 86 54 39 26 26 28 21 17 15 10 5 3 3 4 6 7
147 148 147 146 144 143 141 140 139 134 132 134 133 131 132 130 132 136 129 126 131 133 132 136 139 137 140 143 143 144 135 129 127 115 111 117 119 125 127 134 132 120 115 107 94 89 97 101 114 116 117 123 117 115 118 117 116 108 108 118 107 94 112 123 111 109 108 112 107 98 99 20 7 3 6 15 19 21 18 7 1 2 4 6 3
150 150 150 148 146 144 143 143 140 135 137 136 133 135 135 134 136 136 131 133 137 135 136 138 138 138 143 146 145 144 137 133 127 110 103 112 122 124 129 140 127 108 114 104 93 90 86 89 103 105 116 117 108 107 111 111 116 118 114 118 116 112 123 123 128 127 111 127 127 103 113 14 349 344 359 355 346 10 42 27 8 7 11 12 8
154 153 153 151 148 146 145 145 142 140 141 136 136 137 135 138 138 137 137 136 137 137 140 140 140 141 143 149 149 142 135 134 127 114 109 114 120 122 138 142 120 108 120 88 79 85 78 87 85 80 116 122 111 109 107 108 113 127 129 124 124 124 132 127 123 127 116 126 119 103 82 0 339 344 5 347 328 346 40 40 12 0 2 1 359
155 156 154 153 149 147 146 146 144 143 143 141 140 137 138 140 138 138 136 134 137 138 139 139 146 154 148 148 150 141 136 132 127 121 115 115 119 119 135 136 119 121 120 80 84 86 69 75 75 78 105 99 103 111 110 120 122 130 133 128 130 123 131 136 125 131 135 130 108 136 200 322 328 356 2 335 315 329 353 11 352 334 344 346 344
155 157 155 154 151 148 148 148 147 145 146 147 141 137 141 139 138 141 135 134 138 137 139 139 146 156 145 146 145 132 133 130 129 126 115 112 121 124 137 138 135 130 110 90 95 83 72 68 72 87 79 70 84 110 114 116 123 131 132 128 132 122 124 139 126 126 149 153 147 165 185 244 260 309 349 320 292 321 340 351 343 331 337 340 340
156 159 157 155 152 150 152 151 149 148 151 149 141 141 145 140 143 146 137 138 141 139 141 137 140 152 151 147 129 120 135 129 129 131 119 114 121 130 144 135 139 136 111 106 96 80 83 66 79 99 60 53 74 92 107 106 122 125 128 132 136 130 127 138 121 112 193 181 181 194 207 225 208 246 322 348 307 327 328 322 325 336 339 332 332
157 160 159 158 155 154 155 153 152 155 157 152 145 149 151 146 151 150 142 143 141 142 140 137 143 149 157 146 129 139 148 132 133 137 130 132 129 138 150 133 135 147 116 106 101 94 99 68 77 89 42 18 88 100 113 94 131 126 136 142 145 153 151 158 139 125 212 208 201 201 216 213 167 211 259 266 323 334 298 282 290 317 330 315 314
160 162 162 162 161 159 158 156 156 160 161 157 152 155 157 153 155 153 150 147 144 145 140 142 140 139 158 141 124 147 146 136 140 138 138 143 139 145 157 144 143 167 155 138 140 128 110 70 48 58 28 14 53 70 111 101 133 149 157 158 166 175 171 163 139 143 216 223 215 205 210 212 204 202 219 258 289 279 270 284 296 313 313 300 308
163 165 165 164 164 163 162 160 161 163 164 163 158 158 160 155 156 156 153 150 147 149 144 144 145 159 169 140 128 166 153 143 148 142 137 138 142 143 155 157 157 181 181 157 153 139 110 61 21 16 17 149 115 85 74 96 143 171 157 167 185 177 189 220 218 203 219 237 224 223 221 222 236 213 201 266 269 276 301 313 307 312 308 301 308
166 167 168 167 165 166 165 164 165 165 165 168 163 160 161 154 154 154 151 150 147 151 151 150 149 163 167 148 164 178 150 143 143 135 137 141 145 129 132 171 169 180 183 161 163 150 99 50 33 36 37 165 135 112 95 339 21 156 156 171 181 189 229 258 252 222 237 264 240 244 236 248 268 202 209 281 269 285 329 307 281 298 310 309 314
168 169 169 169 168 170 170 168 169 168 169 173 167 161 163 158 154 152 152 154 150 153 157 158 155 160 167 166 183 164 134 148 151 137 174 176 152 134 139 183 176 178 186 171 153 116 79 46 59 113 77 28 70 107 105 348 3 125 154 176 152 188 224 272 253 230 261 278 250 241 229 288 299 223 250 302 276 291 321 276 270 290 301 305 316
172 173 172 172 171 174 175 171 172 171 174 177 169 165 170 165 161 160 162 161 158 162 167 170 169 171 173 169 187 166 141 162 166 149 192 185 159 160 162 164 171 171 176 183 157 127 187 269 313 108 80 74 32 38 59 44 327 98 131 192 162 187 233 285 277 264 284 301 316 279 255 281 298 286 288 268 264 290 280 257 267 282 289 301 316
174 176 174 174 173 175 178 176 174 173 178 181 173 170 175 171 167 167 167 167 167 172 175 177 176 177 180 170 178 179 156 167 168 153 180 183 165 175 161 146 179 181 173 184 184 177 186 210 336 24 39 131 159 326 359 68 327 336 97 195 205 234 270 280 289 306 296 304 329 301 279 294 298 292 283 245 290 304 283 287 300 296 289 299 316
176 176 176 176 173 175 179 178 175 174 179 184 178 176 177 174 172 170 172 175 171 173 174 170 171 172 180 172 168 180 169 164 178 176 182 183 167 178 171 153 164 207 189 175 175 186 183 189 193 161 247 232 146 293 292 359 342 307 269 274 289 286 294 296 296 320 307 298 316 303 282 291 294 294 292 303 319 312 320 318 303 305 303 300 317
176 176 176 177 175 176 180 179 177 175 180 187 184 180 180 178 176 174 178 181 176 174 169 163 167 165 166 164 161 185 179 162 183 208 188 182 186 187 186 166 165 189 186 171 194 217 209 215 225 233 254 263 307 288 294 323 314 321 341 307 312 304 295 297 288 295 298 298 313 312 298 296 292 297 308 325 323 319 337 327 302 305 304 293 314
177 177 177 177 176 178 180 181 180 178 181 189 188 183 184 184 180 178 181 181 178 178 172 167 172 168 168 172 166 178 189 175 184 205 196 194 204 190 186 179 164 165 178 187 203 215 228 247 254 264 280 270 276 284 298 305 295 318 338 314 314 315 305 301 291 282 290 307 316 310 307 301 292 304 319 320 321 321 329 327 312 310 313 307 318
178 177 177 178 177 179 181 183 184 183 185 193 193 189 189 190 184 183 186 181 176 177 177 179 184 182 180 186 184 175 182 193 192 205 207 197 201 191 187 191 161 171 205 201 207 238 266 298 280 255 253 248 262 288 292 297 292 298 309 305 306 310 310 311 309 303 303 308 308 304 305 301 300 317 319 313 321 323 327 322 306 313 339 340 338
179 177 178 178 178 180 182 185 187 186 190 197 196 193 193 193 189 187 188 185 184 185 188 194 197 193 185 187 198 186 177 190 198 215 215 197 205 192 173 201 202 202 218 199 205 254 300 351 260 265 279 274 269 278 282 290 295 294 295 290 291 297 302 307 307 309 308 303 303 306 305 305 310 318 312 311 316 310 310 314 313 336 347 335 340